Location: Newark
(39.0622°N, 106.5590°E)
Time: 21:32:26
(UTC+00:00)

Vanguard 3 - All Passes

Search period start: 17 January 2020 00:00
Search period end: 27 January 2020 00:00
Orbit: 508 x 3263 km, 33.3° (Epoch: 17 January)

Date Brightness Start Highest point End Pass type
(mag) Time Alt. Az. Time Alt. Az. Time Alt. Az.
17 Jan - 08:45:16 10° SSE 08:53:23 14° SE 09:00:54 10° ESE daylight
17 Jan - 10:51:28 10° SSW 11:07:58 37° SSE 11:20:05 10° E visible
17 Jan - 13:05:45 10° WSW 13:22:42 58° SSE 13:32:50 10° E visible
17 Jan - 15:22:53 10° W 15:36:26 63° S 15:43:52 10° ESE visible
17 Jan - 17:39:56 10° W 17:48:19 35° SSW 17:53:29 10° SE night (unlit)
18 Jan - 09:37:15 10° SSW 09:52:00 27° SE 10:04:17 10° E daylight
18 Jan - 11:49:02 10° SW 12:06:54 51° SSE 12:18:48 10° E visible
18 Jan - 14:05:22 10° WSW 14:21:27 66° S 14:30:36 10° E visible
18 Jan - 16:22:51 10° W 16:34:30 52° SSW 16:41:03 10° SE visible
18 Jan - 18:40:26 10° W 18:45:15 17° SW 18:48:53 10° S night (unlit)
19 Jan - 08:25:21 10° S 08:36:09 17° SE 08:46:15 10° ESE daylight
19 Jan - 10:33:15 10° SSW 10:50:49 41° SSE 11:04:06 10° E visible
19 Jan - 12:47:57 10° WSW 13:05:54 63° S 13:16:55 10° E visible
19 Jan - 15:05:23 10° W 15:20:00 64° S 15:28:07 10° ESE visible
19 Jan - 17:22:53 10° W 17:32:00 34° SSW 17:37:36 10° SSE night (unlit)
20 Jan - 09:18:49 10° SSW 09:34:41 31° SE 09:48:21 10° E daylight
20 Jan - 11:31:07 10° SW 11:49:50 56° SSE 12:02:46 10° E visible
20 Jan - 13:47:42 10° WSW 14:04:48 68° S 14:14:44 10° E visible
20 Jan - 16:05:29 10° W 16:18:07 51° SSW 16:25:15 10° SE visible
20 Jan - 18:23:51 10° W 18:28:51 16° SW 18:32:38 10° S night (unlit)
21 Jan - 08:06:19 10° S 08:18:48 21° SE 08:30:46 10° E daylight
21 Jan - 10:15:17 10° SW 10:33:32 46° SSE 10:47:57 10° E visible
21 Jan - 12:30:13 10° WSW 12:48:59 66° S 13:00:56 10° E visible
21 Jan - 14:47:49 10° W 15:03:27 64° SSW 15:12:17 10° ESE visible
21 Jan - 17:05:45 10° W 17:15:34 32° SW 17:21:39 10° SSE visible
22 Jan - 06:59:16 10° SE 07:03:20 11° SE 07:07:26 10° ESE daylight
22 Jan - 09:00:43 10° SSW 09:17:16 35° SE 09:32:10 10° E daylight
22 Jan - 11:13:22 10° SW 11:32:41 60° SSE 11:46:36 10° E visible
22 Jan - 13:30:04 10° W 13:48:03 70° S 13:58:49 10° ESE visible
22 Jan - 15:48:02 10° W 16:01:35 50° SSW 16:09:22 10° SE visible
22 Jan - 18:07:13 10° W 18:12:19 15° SW 18:16:16 10° SSW night (unlit)
23 Jan - 07:47:52 10° S 08:01:21 24° SE 08:14:48 10° E daylight
23 Jan - 09:57:31 10° SW 10:16:09 50° SSE 10:31:39 10° E visible
23 Jan - 12:12:34 10° WSW 12:31:58 69° S 12:44:52 10° E visible
23 Jan - 14:30:14 10° W 14:46:48 63° SSW 14:56:23 10° ESE visible
23 Jan - 16:48:31 10° W 16:59:00 31° SW 17:05:36 10° SSE visible
24 Jan - 06:38:26 10° SSE 06:45:57 14° SE 06:53:46 10° ESE daylight
24 Jan - 08:42:54 10° SSW 08:59:46 39° SE 09:15:45 10° E daylight
24 Jan - 10:55:47 10° WSW 11:15:25 64° SSE 11:30:21 10° E visible
24 Jan - 13:12:27 10° W 13:31:10 70° S 13:42:48 10° ESE visible
24 Jan - 15:30:33 10° W 15:44:57 48° SSW 15:53:24 10° SE visible
24 Jan - 17:50:36 10° W 17:55:42 15° SW 17:59:44 10° SSW night (unlit)
25 Jan - 07:29:51 10° S 07:43:50 28° SE 07:58:28 10° E daylight
25 Jan - 09:39:59 10° SW 09:58:41 54° SSE 10:15:11 10° E daylight
25 Jan - 11:55:02 10° WSW 12:14:51 71° S 12:28:41 10° E visible
25 Jan - 14:12:39 10° W 14:30:01 62° SSW 14:40:24 10° ESE visible
25 Jan - 16:31:16 10° W 16:42:19 30° SW 16:49:27 10° SSE visible
26 Jan - 06:19:22 10° SSE 06:28:31 16° SE 06:38:24 10° E daylight
26 Jan - 08:25:22 10° SSW 08:42:12 43° SSE 08:59:09 10° E daylight
26 Jan - 10:38:21 10° WSW 10:58:04 67° SSE 11:13:59 10° E visible
26 Jan - 12:54:54 10° W 13:14:11 70° S 13:26:44 10° ESE visible
26 Jan - 15:13:01 10° W 15:28:10 46° SSW 15:37:20 10° SE visible
26 Jan - 17:34:04 10° WSW 17:38:58 14° SW 17:42:59 10° SSW night (unlit)
